Chicopee, MA

3:44 PM EST on February 19, 2018 (GMT -0500)
Westover Air Reserve Base / Metropolitan Airport

Weather History for KCEF - November, 2012

Change the Weather History Date:

Wednesday, November 28, 2012

  Actual Average Record
Temperature  
Mean Temperature 32 °F -  
Max Temperature 39 °F 43 °F 65 °F (2011)
Min Temperature 26 °F 27 °F 6 °F (2002)
Degree Days  
Heating Degree Days 32    
Moisture  
Dew Point 28 °F    
Average Humidity 84    
Maximum Humidity 100    
Minimum Humidity 51    
Precipitation  
Precipitation 0.00 in - - ()
Sea Level Pressure  
Sea Level Pressure 30.20 in    
Wind  
Wind Speed 6 mph (NNW)    
Max Wind Speed 9 mph    
Max Gust Speed -    
Visibility 10 miles    
Events      
Averages and records for this station are not official NWS values.
T = Trace of Precipitation, MM = Missing Value Source: NWS Daily Summary

Daily Weather History Graph

Daily Weather History Graph

Search for Another Location

Airport or City:

Trip Planner

Search our weather history database for the weather conditions in past years. The results will help you decide how hot, cold, wet, or windy it might be!

Date:

Astronomy

Nov. 28, 2012 Rise Set
Actual Time 6:56 AM EST 4:19 PM EST
Civil Twilight 6:25 AM EST 4:50 PM EST
Nautical Twilight 5:50 AM EST 5:25 PM EST
Astronomical Twilight 5:16 AM EST 5:59 PM EST
Moon 4:32 PM EST (11/28) 6:51 AM EST (11/28)
Length of Visible Light 10h 25m
Length of Day
9h 23m
Full, 100% of the Moon is Illuminated
Nov 28
Full
Dec 6
Last Quarter
Dec 13
New
Dec 20
First Quarter
Dec 28
Full

Hourly Weather History & Observations

Time (EST) Temp. Windchill Dew Point Humidity Pressure Visibility Wind Dir Wind Speed Gust Speed Precip Events Conditions
12:55 AM 31.1 °F 26.4 °F 30.7 °F 99% 30.21 in 4.0 mi NNE 4.6 mph - N/A   Overcast
1:28 AM 32.0 °F 26.4 °F 32.0 °F 100% 30.20 in 10.0 mi NNE 5.8 mph - N/A   Overcast
1:55 AM 32.5 °F 27.1 °F 32.0 °F 98% 30.21 in 10.0 mi North 5.8 mph - N/A   Overcast
2:05 AM 32.0 °F 27.5 °F 32.0 °F 100% 30.21 in 10.0 mi NNW 4.6 mph - N/A   Overcast
2:55 AM 31.3 °F 25.6 °F 30.7 °F 98% 30.20 in 5.0 mi North 5.8 mph - N/A   Overcast
3:55 AM 31.8 °F 23.9 °F 31.3 °F 98% 30.20 in 9.0 mi North 9.2 mph - N/A   Overcast
4:11 AM 32.0 °F 26.4 °F 32.0 °F 100% 30.21 in 10.0 mi NNW 5.8 mph - N/A   Overcast
4:13 AM 32.0 °F 25.6 °F 32.0 °F 100% 30.21 in 9.0 mi NNW 6.9 mph - N/A   Overcast
4:15 AM 32.0 °F 25.6 °F 32.0 °F 100% 30.21 in 9.0 mi NNW 6.9 mph - N/A   Overcast
4:20 AM 32.0 °F 25.6 °F 30.2 °F 93% 30.21 in 8.0 mi NNW 6.9 mph - N/A   Overcast
4:31 AM 32.0 °F 24.8 °F 30.2 °F 93% 30.22 in 9.0 mi NNW 8.1 mph - N/A   Overcast
4:34 AM 32.0 °F 24.8 °F 30.2 °F 93% 30.22 in 9.0 mi NNW 8.1 mph - N/A   Overcast
4:41 AM 32.0 °F 25.6 °F 30.2 °F 93% 30.22 in 10.0 mi NNW 6.9 mph - N/A   Overcast
4:44 AM 32.0 °F 25.6 °F 30.2 °F 93% 30.22 in 10.0 mi NNW 6.9 mph - N/A   Overcast
4:50 AM 32.0 °F 26.4 °F 30.2 °F 93% 30.22 in 10.0 mi NNW 5.8 mph - N/A   Overcast
4:51 AM 32.0 °F 25.6 °F 30.2 °F 93% 30.22 in 10.0 mi NNW 6.9 mph - N/A   Overcast
4:52 AM 32.0 °F 25.6 °F 30.2 °F 93% 30.22 in 10.0 mi NNW 6.9 mph - N/A   Overcast
4:55 AM 31.6 °F 25.1 °F 30.6 °F 96% 30.22 in 10.0 mi North 6.9 mph - N/A   Overcast
5:04 AM 32.0 °F 25.6 °F 30.2 °F 93% 30.22 in 10.0 mi North 6.9 mph - N/A   Overcast
5:07 AM 32.0 °F 25.6 °F 30.2 °F 93% 30.22 in 10.0 mi North 6.9 mph - N/A   Overcast
5:43 AM 30.2 °F 23.4 °F 30.2 °F 100% 30.21 in 10.0 mi North 6.9 mph - N/A   Overcast
5:55 AM 30.7 °F 24.9 °F 29.5 °F 95% 30.21 in 10.0 mi North 5.8 mph - N/A   Overcast
6:55 AM 29.3 °F 24.3 °F 28.0 °F 95% 30.21 in 10.0 mi Variable 4.6 mph - N/A   Overcast
7:55 AM 28.6 °F 24.8 °F 27.1 °F 94% 30.21 in 10.0 mi Variable 3.5 mph - N/A   Clear
8:55 AM 30.6 °F - 28.2 °F 91% 30.22 in 10.0 mi Calm Calm - N/A   Overcast
9:55 AM 33.1 °F 30.0 °F 29.7 °F 87% 30.22 in 10.0 mi North 3.5 mph - N/A   Clear
10:55 AM 34.7 °F 30.6 °F 29.1 °F 80% 30.20 in 10.0 mi NNE 4.6 mph - N/A   Partly Cloudy
11:55 AM 37.2 °F - 27.3 °F 67% 30.17 in 10.0 mi Calm Calm - N/A   Clear
12:35 PM 37.4 °F - 26.6 °F 65% 30.16 in 10.0 mi Calm Calm - N/A   Mostly Cloudy
12:39 PM 37.4 °F 34.9 °F 26.6 °F 65% 30.15 in 10.0 mi Variable 3.5 mph - N/A   Mostly Cloudy
12:55 PM 37.8 °F - 27.0 °F 65% 30.15 in 10.0 mi Calm Calm - N/A   Mostly Cloudy
1:55 PM 39.0 °F 34.8 °F 24.3 °F 55% 30.14 in 10.0 mi NW 5.8 mph - N/A   Mostly Cloudy
2:55 PM 38.5 °F 32.1 °F 21.6 °F 51% 30.13 in 10.0 mi West 9.2 mph - N/A   Mostly Cloudy
3:55 PM 37.2 °F 30.6 °F 21.0 °F 52% 30.14 in 10.0 mi West 9.2 mph - N/A   Scattered Clouds
4:55 PM 36.0 °F 29.6 °F 21.2 °F 55% 30.15 in 10.0 mi WNW 8.1 mph - N/A   Overcast
5:55 PM 34.9 °F 27.7 °F 20.8 °F 57% 30.18 in 10.0 mi West 9.2 mph - N/A   Partly Cloudy
6:55 PM 31.1 °F 23.7 °F 19.9 °F 63% 30.19 in 10.0 mi West 8.1 mph - N/A   Clear
7:55 PM 29.5 °F 25.9 °F 19.9 °F 68% 30.19 in 10.0 mi South 3.5 mph - N/A   Clear
8:55 PM 26.8 °F 22.8 °F 21.0 °F 79% 30.20 in 10.0 mi SSW 3.5 mph - N/A   Clear
9:55 PM 26.1 °F 20.5 °F 20.7 °F 80% 30.19 in 10.0 mi South 4.6 mph - N/A   Clear
10:55 PM 26.6 °F - 20.7 °F 78% 30.19 in 10.0 mi Calm Calm - N/A   Clear
11:55 PM 26.2 °F 20.7 °F 20.7 °F 79% 30.20 in 10.0 mi South 4.6 mph - N/A   Clear